Terminal Aerodrome Forecast
Issued by NWS Wilmington, OH

Current Version | Previous Version | Graphics & Text | Print | Product List | Glossary On
Versions: 1 2 3 4 5 6 7 8 9 10 11 12 13 14 15 16 17 18 19 20 21
000
FTUS41 KILN 271000 AAB
TAFILN
TAF AMD
KILN 271021Z 2710/2806 21005KT P6SM SCT008 BKN020
      TEMPO 2710/2712 BKN022
     FM271400 22012G20KT P6SM FEW015
     FM272000 23014G22KT P6SM VCTS BKN035CB
     FM280000 24012KT P6SM FEW040 BKN100
     FM280500 26005KT P6SM FEW050=

USA.gov is the U.S. government's official web portal to all federal, state and local government web resources and services.